Wind_Speed
17 16 16 16 16 16 16 15 15 15 16 17 17 17 17 17 16 15 16 18 18 19 20 20 22 22 23 24 24 25 25 27 30 31 32 32 33 33 36 37 38 38 38 39 44
19 19 18 17 16 15 16 16 16 16 17 17 17 17 17 17 17 17 17 17 17 17 17 18 19 20 22 23 24 26 27 29 31 33 32 32 33 34 35 36 37 38 39 41 43
20 20 19 19 17 15 16 17 18 18 18 18 19 19 19 18 18 18 19 19 19 20 20 20 21 21 22 22 21 23 26 29 31 32 32 32 34 36 36 36 37 39 41 43 45
19 20 20 20 19 18 18 18 20 20 20 20 20 20 20 20 19 19 20 20 21 21 22 23 24 25 26 26 27 27 28 27 28 30 30 31 33 35 34 34 35 38 41 42 44
21 21 21 21 22 21 20 19 20 21 20 20 20 20 20 19 19 19 20 21 21 22 24 25 27 28 29 29 30 31 31 31 32 33 33 34 34 32 31 32 34 35 36 39 40
23 22 22 23 23 23 22 21 21 21 21 20 21 21 21 22 22 23 23 24 24 25 27 28 30 30 32 33 33 35 35 36 37 39 39 39 37 35 34 36 37 38 39 41 43
25 24 24 24 24 24 24 24 23 23 23 23 23 23 23 23 23 24 23 24 25 27 29 30 31 32 34 34 35 36 37 38 40 41 42 44 42 40 39 41 43 45 46 48 50
23 24 25 26 27 28 26 26 25 23 22 22 22 22 23 24 25 26 28 30 31 31 32 33 35 36 37 38 39 40 40 40 40 39 41 43 44 46 47 48 48 50 53 56 55
23 24 23 24 27 27 30 29 27 25 24 23 24 26 27 26 27 29 30 32 33 34 35 36 38 39 41 40 42 44 43 42 43 42 42 44 44 47 48 49 51 51 50 52 53
23 25 25 26 26 28 30 32 30 28 28 28 28 27 28 29 30 29 30 32 35 36 37 37 40 40 39 39 42 43 44 44 42 41 41 42 44 45 46 47 49 49 47 48 50
25 23 23 26 26 25 28 33 33 31 30 31 30 30 31 31 31 31 29 30 33 35 36 38 39 38 36 40 41 40 43 45 44 39 40 41 41 41 43 43 44 44 43 43 45
28 25 24 23 24 25 25 26 30 31 32 33 34 34 33 33 34 34 31 30 31 33 36 39 40 37 38 39 39 40 41 42 42 41 42 41 38 38 40 40 41 42 40 40 42
31 28 27 27 27 29 30 30 32 34 33 35 36 36 36 35 36 36 35 34 33 33 33 36 37 36 36 38 38 40 42 41 42 44 45 42 39 38 37 37 39 40 40 40 39
32 31 31 31 31 32 33 33 35 35 36 36 37 38 41 39 38 39 40 38 36 34 34 37 35 39 39 41 40 42 44 44 44 44 45 43 37 37 39 40 40 40 39 39 40
33 32 32 31 32 35 35 36 37 38 37 38 41 42 44 44 41 42 42 41 40 38 38 39 39 43 45 46 44 46 47 45 44 44 44 45 40 41 41 41 42 42 41 39 39
32 32 33 35 35 36 38 39 40 42 42 42 44 45 46 47 45 45 46 46 45 43 42 45 42 45 49 50 51 49 51 50 48 47 42 46 44 41 45 47 49 49 45 42 42
33 35 36 36 37 39 41 43 44 46 46 44 46 49 50 50 49 49 49 50 51 49 48 49 47 49 53 53 54 55 56 55 52 51 49 49 45 46 48 50 52 53 53 51 51
38 37 39 41 42 44 45 47 47 47 48 48 49 50 51 51 51 51 52 53 55 53 53 52 53 56 56 55 58 59 60 60 59 58 56 54 51 52 55 56 56 56 57 57 57
39 41 43 45 48 49 50 49 48 49 51 51 52 53 54 57 57 58 57 57 58 58 59 58 56 61 60 60 61 62 64 67 66 63 61 60 58 59 61 62 62 63 63 62 62
41 44 46 47 48 49 51 51 52 54 55 56 57 57 59 61 62 61 61 60 62 63 65 63 61 64 65 67 66 68 68 70 72 69 68 66 66 64 65 67 68 68 68 69 70
45 48 50 52 54 56 57 57 58 58 60 61 63 63 64 65 66 68 67 68 69 70 72 70 70 68 69 70 72 73 71 73 75 71 72 67 66 70 72 74 75 74 73 74 75
53 55 56 56 58 58 59 60 62 63 64 65 66 66 67 68 69 70 71 73 73 74 75 75 74 73 75 73 74 74 73 76 78 75 74 72 67 74 77 79 79 78 78 78 80
56 57 58 58 60 64 65 65 65 65 66 64 64 64 65 66 68 68 70 71 72 73 74 76 75 74 73 74 74 74 74 76 79 79 76 79 73 80 82 82 81 80 81 83 86
61 63 66 67 68 67 66 65 66 67 69 71 71 70 70 72 75 73 74 76 77 78 78 77 74 73 72 73 73 72 70 70 72 70 72 68 73 78 82 81 80 81 84 87 86
64 65 66 67 69 70 70 72 76 78 78 79 80 81 81 80 81 82 82 84 86 87 88 87 84 85 82 82 82 79 78 79 77 76 76 75 73 79 83 81 82 84 85 87 89
64 66 69 73 76 79 81 80 81 83 85 87 89 90 91 92 92 93 92 91 92 92 94 94 91 92 88 91 92 88 85 84 83 83 82 83 80 90 88 87 89 90 91 92 93
71 74 77 79 82 84 85 88 89 89 92 94 96 97 99 99 97 96 96 95 94 94 94 94 93 94 90 92 94 88 85 87 87 86 86 83 86 90 90 90 91 92 91 92 92
Wind_Direction
220 223 230 236 239 240 242 246 251 256 259 257 253 249 248 251 249 246 246 246 243 243 244 247 247 248 247 243 243 245 245 245 244 244 246 251 252 253 256 257 257 258 260 261 261
223 229 234 238 239 240 245 249 253 256 258 256 254 253 253 248 248 251 252 252 254 253 253 253 254 254 250 246 247 248 246 246 247 248 247 250 253 254 254 258 261 262 264 264 264
233 233 238 236 238 245 252 255 257 258 257 255 258 258 257 257 253 255 255 255 256 256 257 260 260 258 259 256 252 252 250 249 252 251 249 248 251 254 253 253 254 254 254 256 257
235 237 239 241 241 247 251 256 258 258 258 259 261 261 260 262 260 258 259 256 258 259 258 258 261 262 263 263 263 261 258 255 259 260 257 252 251 253 258 259 258 258 258 258 260
238 238 240 244 244 247 250 254 257 258 258 258 260 263 263 263 263 263 264 264 265 265 263 262 262 263 266 267 267 268 266 264 263 262 260 257 255 255 257 260 261 263 266 265 264
239 239 243 244 245 246 247 250 255 255 255 257 259 261 262 263 264 264 265 264 264 264 265 266 266 266 266 266 266 268 269 267 265 264 264 262 258 256 255 259 261 264 269 272 273
240 242 245 246 243 245 246 248 253 256 257 259 261 261 259 261 263 265 266 268 269 268 267 266 267 267 268 269 268 268 269 269 267 268 269 268 264 259 257 258 262 263 267 271 274
244 243 247 247 243 243 247 248 256 259 261 260 261 263 267 268 269 269 270 272 272 271 272 272 270 271 271 272 272 271 270 270 269 268 269 271 269 267 264 263 263 264 266 270 272
256 252 251 250 246 250 249 250 255 259 260 262 268 270 269 270 273 273 274 275 275 274 273 273 272 271 273 275 274 273 273 274 274 272 273 273 271 269 270 269 268 268 269 271 271
260 256 254 253 255 253 250 247 250 256 259 262 264 264 268 273 273 273 275 276 276 275 275 274 273 274 276 274 271 275 275 272 270 274 274 274 276 277 274 274 273 272 271 268 269
256 257 253 250 254 256 254 251 253 257 260 265 268 270 274 272 271 271 271 275 276 276 275 274 273 275 272 269 272 272 273 276 276 272 274 275 276 276 279 279 278 275 276 276 276
249 245 250 251 253 254 255 254 255 258 262 264 267 269 270 268 270 270 272 274 272 275 276 274 273 271 267 266 269 271 272 275 280 280 277 276 276 276 278 279 279 280 278 278 279
242 246 248 250 251 254 257 257 260 262 264 271 270 268 269 269 270 272 273 275 275 272 276 275 274 271 267 266 268 271 272 276 277 276 277 278 277 274 273 275 277 280 281 279 278
245 247 251 253 254 255 258 259 263 266 267 270 268 266 270 271 270 268 269 274 273 274 274 271 271 266 265 266 270 271 273 273 273 272 274 275 272 275 280 279 279 280 282 287 290
249 251 255 255 254 258 261 264 266 266 268 271 271 270 268 270 271 269 268 268 271 274 271 270 268 265 264 268 270 271 272 272 270 272 272 273 271 275 278 276 278 280 281 281 284
253 255 259 262 264 265 269 269 272 275 276 272 270 270 269 270 272 271 269 267 268 269 268 267 266 266 265 266 269 271 272 270 269 269 271 270 273 275 275 275 276 279 281 281 285
260 257 259 262 266 269 274 276 276 275 273 272 270 270 271 271 273 273 272 271 270 269 267 269 267 266 264 267 267 269 270 271 271 270 268 266 268 271 272 274 276 279 281 283 286
262 260 261 265 269 273 276 275 274 272 271 271 271 272 272 272 272 272 272 271 271 271 270 270 269 267 266 266 267 268 268 269 269 270 270 269 268 269 272 274 276 279 281 282 284
266 266 267 269 272 275 275 274 273 272 272 272 272 272 272 272 271 270 270 269 270 269 269 268 267 268 268 269 269 268 269 269 269 268 267 269 269 269 271 273 275 277 279 279 281
269 271 273 274 274 276 276 276 275 275 275 275 274 273 273 272 272 270 270 270 268 268 267 267 266 267 268 269 269 267 268 269 269 270 269 269 269 270 272 275 275 276 278 280 281
274 275 275 277 276 277 276 276 276 274 273 273 272 272 270 270 270 270 271 270 269 269 268 268 267 266 266 267 266 268 269 270 270 270 269 269 270 272 272 273 273 274 276 279 282
279 280 279 279 278 278 278 277 277 275 274 273 271 270 269 269 267 267 268 268 269 268 268 268 268 268 266 266 266 268 269 270 272 274 275 275 275 275 274 273 273 275 277 279 281
281 280 280 280 279 280 281 280 278 276 275 272 272 272 272 272 271 270 269 268 268 268 269 268 267 265 265 266 265 263 265 267 270 272 275 275 277 273 273 273 274 276 278 279 280
285 285 285 284 282 280 278 276 274 273 273 273 272 271 270 271 272 271 272 272 271 269 268 267 268 268 266 264 264 265 265 266 269 271 270 274 272 272 272 273 274 274 274 277 280
282 281 281 281 281 280 279 278 278 278 276 275 275 274 273 271 271 272 272 271 271 271 271 269 267 265 264 263 263 262 264 266 268 269 270 268 270 272 272 274 275 275 276 278 280
282 281 280 281 281 282 281 279 279 277 276 277 276 275 274 274 274 273 270 268 267 267 267 267 266 265 264 264 264 263 264 266 266 266 267 269 271 269 273 274 276 278 279 281 284
287 287 287 286 285 284 283 282 281 280 280 280 279 278 276 275 273 270 268 267 265 263 263 263 264 264 263 263 263 264 265 266 267 269 269 270 270 272 274 275 277 279 281 283 285
Height
10889 10891 10893 10894 10896 10897 10898 10900 10902 10903 10905 10906 10908 10908 10909 10910 10910 10911 10912 10913 10913 10914 10916 10917 10918 10919 10922 10924 10925 10927 10929 10930 10930 10931 10933 10936 10939 10941 10941 10943 10944 10945 10946 10946 10944
10886 10888 10890 10891 10892 10894 10895 10896 10898 10900 10902 10903 10904 10905 10906 10907 10907 10908 10909 10910 10911 10912 10912 10913 10913 10914 10916 10919 10920 10922 10923 10923 10923 10926 10931 10932 10933 10934 10937 10938 10938 10938 10939 10937 10935
10883 10884 10886 10888 10889 10890 10891 10893 10894 10896 10898 10899 10900 10901 10902 10903 10904 10905 10906 10907 10908 10909 10909 10909 10909 10910 10911 10913 10915 10916 10916 10918 10918 10921 10925 10926 10926 10925 10928 10930 10930 10929 10928 10927 10925
10879 10880 10882 10883 10885 10886 10888 10889 10890 10892 10894 10895 10896 10898 10899 10900 10901 10902 10903 10904 10905 10905 10906 10905 10906 10906 10906 10907 10909 10910 10910 10913 10912 10914 10917 10919 10919 10919 10922 10922 10920 10918 10919 10921 10919
10875 10877 10878 10879 10881 10882 10884 10885 10886 10888 10890 10891 10893 10894 10895 10896 10898 10899 10899 10900 10901 10901 10901 10901 10900 10900 10901 10902 10903 10903 10904 10907 10907 10907 10909 10910 10912 10914 10916 10915 10913 10912 10911 10910 10910
10871 10872 10873 10875 10877 10878 10880 10881 10883 10884 10886 10887 10889 10890 10891 10892 10893 10894 10894 10895 10895 10895 10895 10894 10895 10895 10895 10895 10897 10896 10897 10899 10899 10898 10899 10901 10905 10907 10909 10907 10907 10905 10903 10901 10900
10867 10868 10869 10871 10872 10874 10876 10877 10879 10880 10882 10883 10884 10885 10886 10887 10888 10888 10889 10889 10889 10888 10888 10888 10888 10888 10887 10888 10889 10889 10889 10889 10889 10891 10891 10890 10895 10898 10900 10900 10899 10896 10894 10892 10889
10862 10863 10864 10865 10867 10869 10871 10873 10874 10876 10877 10878 10879 10880 10881 10881 10882 10882 10882 10882 10881 10881 10881 10881 10881 10880 10880 10880 10880 10879 10879 10880 10881 10883 10882 10880 10883 10885 10887 10888 10888 10886 10884 10881 10877
10856 10857 10858 10860 10862 10863 10866 10868 10869 10871 10872 10873 10874 10874 10874 10875 10875 10875 10875 10874 10873 10873 10873 10873 10872 10872 10872 10872 10870 10868 10869 10870 10870 10873 10873 10871 10872 10871 10874 10874 10874 10874 10874 10870 10865
10851 10852 10853 10854 10856 10857 10859 10861 10862 10864 10865 10866 10866 10867 10867 10867 10867 10867 10867 10866 10865 10865 10864 10864 10863 10864 10865 10862 10859 10858 10856 10858 10862 10863 10863 10861 10860 10860 10860 10861 10859 10859 10860 10859 10855
10845 10846 10846 10848 10849 10851 10852 10853 10855 10857 10857 10859 10859 10860 10860 10859 10859 10859 10859 10858 10857 10855 10855 10854 10854 10856 10856 10852 10851 10850 10846 10844 10848 10855 10852 10852 10852 10850 10847 10849 10847 10846 10848 10847 10844
10839 10840 10841 10842 10843 10844 10845 10846 10847 10849 10850 10850 10851 10851 10851 10850 10851 10850 10851 10850 10849 10847 10844 10844 10844 10847 10847 10844 10843 10842 10839 10838 10837 10839 10840 10843 10842 10839 10838 10836 10834 10832 10834 10833 10833
10832 10833 10834 10835 10837 10838 10838 10839 10839 10840 10842 10842 10842 10842 10841 10842 10841 10841 10840 10840 10840 10838 10836 10834 10834 10835 10837 10836 10835 10833 10830 10831 10830 10829 10828 10831 10832 10830 10827 10826 10824 10821 10820 10820 10821
10825 10827 10828 10828 10830 10830 10830 10831 10831 10831 10832 10833 10832 10833 10829 10832 10832 10831 10830 10830 10829 10830 10828 10825 10827 10825 10826 10826 10826 10824 10823 10822 10821 10820 10820 10820 10822 10819 10817 10814 10813 10812 10811 10810 10808
10818 10819 10820 10821 10822 10822 10822 10822 10822 10822 10823 10823 10821 10820 10819 10818 10820 10821 10820 10819 10819 10819 10816 10815 10816 10816 10815 10814 10817 10813 10812 10812 10811 10811 10811 10808 10811 10809 10806 10804 10801 10800 10802 10802 10801
10810 10811 10811 10812 10812 10813 10812 10812 10811 10811 10811 10810 10808 10807 10805 10806 10806 10807 10806 10806 10807 10808 10805 10801 10805 10804 10804 10804 10803 10803 10799 10800 10800 10801 10804 10797 10798 10800 10794 10791 10788 10787 10788 10789 10789
10801 10802 10803 10803 10802 10802 10801 10800 10800 10799 10797 10799 10796 10793 10792 10792 10793 10792 10792 10791 10792 10795 10793 10789 10791 10789 10788 10789 10790 10789 10788 10786 10789 10789 10790 10789 10789 10787 10782 10779 10777 10775 10774 10773 10774
10792 10792 10792 10792 10791 10790 10789 10788 10788 10786 10784 10784 10782 10781 10779 10779 10778 10777 10776 10775 10775 10778 10777 10779 10775 10772 10773 10774 10774 10774 10772 10772 10772 10774 10774 10775 10779 10774 10768 10766 10765 10763 10762 10760 10759
10782 10782 10782 10780 10778 10777 10776 10775 10774 10772 10770 10770 10768 10767 10766 10762 10761 10760 10760 10760 10760 10759 10759 10760 10762 10754 10757 10758 10758 10759 10756 10752 10755 10759 10759 10760 10762 10758 10756 10753 10750 10747 10745 10745 10744
10772 10770 10769 10767 10765 10763 10761 10761 10759 10756 10755 10753 10751 10752 10749 10745 10743 10743 10743 10746 10743 10740 10738 10743 10746 10742 10740 10738 10740 10737 10739 10737 10735 10739 10741 10746 10744 10743 10740 10735 10731 10729 10729 10727 10725
10758 10756 10755 10753 10750 10748 10745 10744 10742 10740 10737 10736 10733 10732 10732 10729 10727 10724 10726 10724 10723 10722 10720 10722 10724 10728 10725 10723 10719 10718 10721 10718 10713 10720 10719 10727 10729 10726 10721 10715 10713 10712 10711 10709 10706
10744 10741 10739 10736 10733 10729 10727 10726 10724 10720 10717 10716 10713 10712 10710 10708 10708 10705 10704 10701 10702 10700 10698 10699 10703 10706 10704 10705 10703 10701 10702 10698 10693 10699 10700 10704 10713 10703 10697 10693 10692 10693 10691 10690 10684
10727 10726 10722 10720 10716 10711 10708 10706 10703 10698 10695 10696 10694 10691 10690 10687 10685 10685 10684 10682 10681 10677 10677 10676 10680 10681 10685 10684 10684 10683 10684 10682 10678 10679 10686 10681 10692 10677 10673 10672 10672 10672 10671 10667 10662
10712 10707 10701 10698 10694 10692 10688 10686 10682 10679 10674 10669 10671 10671 10670 10666 10661 10665 10662 10659 10656 10655 10654 10653 10658 10658 10662 10660 10660 10663 10664 10664 10662 10666 10663 10670 10663 10655 10649 10650 10653 10653 10650 10645 10644
10694 10689 10682 10679 10672 10669 10667 10663 10657 10652 10650 10647 10646 10642 10642 10642 10641 10639 10640 10635 10629 10626 10625 10627 10636 10633 10636 10636 10635 10642 10645 10645 10646 10646 10644 10645 10646 10632 10624 10631 10631 10627 10628 10628 10626
10676 10670 10665 10658 10651 10644 10639 10639 10634 10627 10622 10618 10614 10613 10612 10610 10611 10610 10610 10608 10603 10601 10596 10596 10604 10602 10612 10607 10606 10617 10622 10624 10625 10623 10624 10623 10628 10605 10608 10610 10606 10605 10604 10605 10602
10654 10648 10640 10636 10627 10619 10614 10605 10602 10600 10591 10587 10582 10578 10573 10574 10577 10576 10574 10575 10576 10573 10569 10570 10571 10570 10583 10576 10575 10593 10601 10597 10596 10600 10599 10604 10598 10590 10588 10587 10586 10585 10584 10581 10577